GW1476 Weather Reports


Display with metric or nautical units.
time (UTC)temp
F
wind
direction
speed
MPH
gust
MPH
rain 1hr
in
rain 24hr
in
rain mn
in
humidity
%
barometer
mb
20260508012725 50 180 2.0 2.0 0.00 0.00 0.00 88 1016.2
20260508011528 51 203 1.0 1.0 0.00 0.00 0.00 84 1016.2
20260508010935 51 180 0.0 2.0 0.00 0.00 0.00 83 1016.2
20260508010349 52 158 1.0 1.0 0.00 0.00 0.00 81 1016.2
20260508005736 53 158 0.0 2.0 0.00 0.00 0.00 80 1015.9
20260508003908 54 203 1.0 2.0 0.00 0.00 0.00 75 1015.9
20260508003340 55 158 0.0 3.0 0.00 0.00 0.00 74 1015.5
20260508002734 57 248 0.0 2.0 0.00 0.00 0.00 70 1015.5
20260508002110 58 248 2.0 2.0 0.00 0.00 0.00 66 1015.5
20260508001532 59 23 0.0 0.0 0.00 0.00 0.00 62 1015.5
20260508000949 60 45 1.0 2.0 0.00 0.00 0.00 59 1015.2
20260508000335 60 338 2.0 3.0 0.00 0.00 0.00 53 1015.2
20260507235747 61 23 2.0 5.0 0.00 0.00 0.00 53 1015.2
20260507235119 62 23 3.0 5.0 0.00 0.00 0.00 51 1014.9
20260507234551 62 45 4.0 4.0 0.00 0.00 0.00 49 1014.9
20260507233938 64 338 2.0 6.0 0.00 0.00 0.00 48 1014.9
20260507233347 65 0 4.0 6.0 0.00 0.00 0.00 47 1014.9
20260507231535 65 23 4.0 4.0 0.00 0.00 0.00 48 1014.9
20260507225744 65 338 6.0 6.0 0.00 0.00 0.00 48 1014.9
20260507225120 64 23 3.0 3.0 0.00 0.00 0.00 50 1014.9
20260507224527 65 45 7.0 8.0 0.00 0.00 0.00 49 1014.9
20260507223918 64 315 5.0 7.0 0.00 0.00 0.00 49 1014.5
20260507223338 64 23 6.0 11.0 0.00 0.00 0.00 49 1014.5
20260507222719 66 23 10.0 10.0 0.00 0.00 0.00 47 1014.5
20260507221516 64 315 3.0 3.0 0.00 0.00 0.00 50 1014.5
20260507220312 65 0 3.0 8.0 0.00 0.00 0.00 49 1014.2
20260507215738 65 23 2.0 4.0 0.00 0.00 0.00 52 1014.2
20260507215144 66 23 5.0 5.0 0.00 0.00 0.00 49 1014.2
20260507213944 67 113 4.0 10.0 0.00 0.00 0.00 48 1014.2
20260507212737 68 293 4.0 4.0 0.00 0.00 0.00 52 1014.2
20260507211532 68 0 4.0 4.0 0.00 0.00 0.00 50 1013.8
20260507210928 68 90 3.0 5.0 0.00 0.00 0.00 49 1013.8
20260507210344 68 338 9.0 12.0 0.00 0.00 0.00 49 1013.8
20260507204547 68 113 1.0 2.0 0.00 0.00 0.00 49 1013.8
20260507202737 67 23 2.0 3.0 0.00 0.00 0.00 52 1013.8
20260507202152 68 23 3.0 4.0 0.00 0.00 0.00 50 1013.8
20260507201538 68 0 6.0 6.0 0.00 0.00 0.00 52 1013.8
20260507200938 69 45 5.0 5.0 0.00 0.00 0.00 51 1013.8
20260507195752 68 203 3.0 6.0 0.00 0.00 0.00 53 1013.8
20260507195151 68 158 2.0 6.0 0.00 0.00 0.00 56 1014.2
20260507194514 66 270 0.0 2.0 0.00 0.00 0.00 55 1014.2
20260507193951 65 23 2.0 8.0 0.00 0.00 0.00 54 1014.2
20260507192732 66 45 4.0 6.0 0.00 0.00 0.00 57 1014.2
20260507192146 67 270 3.0 5.0 0.00 0.00 0.00 57 1014.5
20260507191535 67 23 3.0 3.0 0.00 0.00 0.00 57 1014.5
20260507190936 68 23 4.0 6.0 0.00 0.00 0.00 57 1014.5
20260507185724 64 23 1.0 5.0 0.00 0.00 0.00 60 1014.5
20260507185150 67 68 5.0 6.0 0.00 0.00 0.00 56 1014.9
20260507184548 67 270 2.0 3.0 0.00 0.00 0.00 58 1014.9
20260507183951 67 23 4.0 6.0 0.00 0.00 0.00 58 1014.9
20260507183308 66 113 2.0 4.0 0.00 0.00 0.00 57 1014.9
20260507182714 67 23 2.0 4.0 0.00 0.00 0.00 61 1014.9
20260507182150 68 23 5.0 5.0 0.00 0.00 0.00 56 1014.9
20260507181510 66 248 2.0 4.0 0.00 0.00 0.00 61 1014.9
20260507180927 65 158 2.0 5.0 0.00 0.00 0.00 61 1015.2
20260507180324 64 203 2.0 3.0 0.00 0.00 0.00 60 1015.2
20260507174520 64 270 2.0 2.0 0.00 0.00 0.00 63 1015.5
20260507173945 62 270 1.0 4.0 0.00 0.00 0.00 62 1015.2
20260507172732 63 90 1.0 5.0 0.00 0.00 0.00 64 1015.5
20260507172129 64 203 4.0 4.0 0.00 0.00 0.00 63 1015.5
20260507170911 62 0 4.0 4.0 0.00 0.00 0.00 63 1015.5
20260507170321 61 0 3.0 5.0 0.00 0.00 0.00 63 1015.5
20260507165750 62 23 4.0 9.0 0.00 0.00 0.00 61 1015.9
20260507165135 63 180 2.0 3.0 0.00 0.00 0.00 65 1015.9
20260507163923 61 23 4.0 6.0 0.00 0.00 0.00 63 1015.9
20260507162722 64 180 3.0 4.0 0.00 0.00 0.00 63 1015.9
20260507162152 63 180 3.0 5.0 0.00 0.00 0.00 65 1015.9
20260507161555 64 180 5.0 5.0 0.00 0.00 0.00 62 1015.9
20260507160923 62 23 3.0 4.0 0.00 0.00 0.00 66 1016.2
20260507160346 60 45 2.0 4.0 0.00 0.00 0.00 67 1016.2
20260507155731 61 0 2.0 5.0 0.00 0.00 0.00 65 1016.2
20260507155123 60 0 2.0 2.0 0.00 0.00 0.00 66 1016.2
20260507154519 60 0 2.0 4.0 0.00 0.00 0.00 64 1016.2
20260507153911 60 270 2.0 4.0 0.00 0.00 0.00 68 1016.2
20260507153315 60 270 1.0 5.0 0.00 0.00 0.00 65 1016.2
20260507152750 60 0 4.0 5.0 0.00 0.00 0.00 67 1016.2
20260507151534 59 23 3.0 3.0 0.00 0.00 0.00 67 1016.2
20260507150347 59 270 1.0 3.0 0.00 0.00 0.00 71 1016.2
20260507145715 59 180 3.0 4.0 0.00 0.00 0.00 70 1016.2
20260507145111 59 0 2.0 3.0 0.00 0.00 0.00 69 1016.2
20260507144515 59 203 2.0 2.0 0.00 0.00 0.00 70 1016.2
20260507143939 59 203 3.0 4.0 0.00 0.00 0.00 70 1016.2
20260507143320 59 338 0.0 2.0 0.00 0.00 0.00 74 1016.2
20260507142123 58 23 3.0 3.0 0.00 0.00 0.00 75 1016.2
20260507141517 58 315 1.0 1.0 0.00 0.00 0.00 79 1016.5
20260507140926 57 248 1.0 3.0 0.00 0.00 0.00 81 1016.5
20260507140342 57 293 2.0 2.0 0.00 0.00 0.00 80 1016.5
20260507135143 56 225 0.0 1.0 0.00 0.00 0.00 81 1016.5
20260507134519 56 0 2.0 2.0 0.00 0.00 0.00 80 1016.5
20260507133319 56 0 1.0 2.0 0.00 0.00 0.00 88 1016.9
20260507132742 56 23 0.0 0.0 0.00 0.00 0.00 94 1016.9
20260507132122 56 225 0.0 0.0 0.00 0.00 0.00 94 1016.9
20260507130911 55 113 0.0 0.0 0.00 0.00 0.00 97 1016.9
20260507130311 54 203 0.0 0.0 0.00 0.00 0.00 97 1016.5
20260507124550 54 293 0.0 0.0 0.00 0.00 0.00 99 1016.9
20260507123943 53 270 0.0 0.0 0.00 0.00 0.00 99 1016.5
20260507123343 53 0 0.0 0.0 0.00 0.00 0.00 99 1016.5
20260507122748 53 225 0.0 0.0 0.00 0.00 0.00 99 1016.5
20260507122127 53 225 0.0 0.0 0.00 0.00 0.00 99 1016.5
20260507120340 52 180 0.0 0.0 0.00 0.00 0.00 99 1016.9
20260507115712 51 0 0.0 0.0 0.00 0.00 0.00 99 1016.9
20260507115146 51 270 0.0 0.0 0.00 0.00 0.00 99 1016.9
20260507114527 51 180 0.0 0.0 0.00 0.00 0.00 99 1016.5
20260507113916 51 203 0.0 0.0 0.00 0.00 0.00 99 1016.9
20260507113326 51 270 0.0 0.0 0.00 0.00 0.00 99 1016.9
20260507112752 51 225 0.0 0.0 0.00 0.00 0.00 99 1016.9
20260507111513 50 270 0.0 0.0 0.00 0.00 0.00 99 1016.5
20260507110940 50 270 0.0 0.0 0.00 0.00 0.00 99 1016.2
20260507110320 50 338 0.0 0.0 0.00 0.00 0.00 99 1016.2
20260507105717 50 45 0.0 0.0 0.00 0.00 0.00 99 1016.2
20260507105143 50 23 0.0 0.0 0.00 0.00 0.00 99 1016.2
20260507104546 50 23 0.0 0.0 0.00 0.00 0.00 99 1016.2
20260507103320 50 45 0.0 0.0 0.00 0.00 0.00 99 1016.2
20260507102729 50 338 0.0 0.0 0.00 0.00 0.00 99 1016.2
20260507101525 50 270 0.0 0.0 0.00 0.00 0.00 99 1015.5
20260507100912 50 180 0.0 0.0 0.00 0.00 0.00 99 1015.5
20260507100332 51 270 0.0 0.0 0.00 0.00 0.00 99 1015.5
20260507095740 51 270 0.0 0.0 0.00 0.00 0.00 99 1015.5
20260507095110 51 338 0.0 0.0 0.00 0.00 0.00 99 1015.5
20260507093930 51 225 0.0 0.0 0.00 0.00 0.00 99 1015.9
20260507093344 51 270 0.0 0.0 0.00 0.00 0.00 99 1015.9
20260507092744 51 270 0.0 0.0 0.00 0.00 0.00 99 1016.2
20260507092130 50 270 0.0 0.0 0.00 0.00 0.00 99 1016.2
20260507091510 50 338 0.0 0.0 0.00 0.00 0.00 99 1015.9
20260507090939 50 0 0.0 0.0 0.00 0.00 0.00 99 1016.2
20260507090318 51 45 0.0 0.0 0.00 0.00 0.00 99 1016.2
20260507085715 51 315 0.0 0.0 0.00 0.00 0.00 99 1015.9
20260507085109 51 338 0.0 0.0 0.00 0.00 0.00 99 1015.9
20260507084541 51 23 0.0 0.0 0.00 0.00 0.00 99 1015.9
20260507083925 51 225 0.0 0.0 0.00 0.00 0.00 99 1015.5
20260507083327 51 23 0.0 0.0 0.00 0.00 0.00 99 1015.5
20260507082121 52 203 0.0 0.0 0.00 0.00 0.00 99 1015.9
20260507081530 52 225 0.0 0.0 0.00 0.00 0.00 99 1015.9
20260507080917 52 248 0.0 0.0 0.00 0.00 0.00 99 1015.9
20260507080337 52 203 0.0 0.0 0.00 0.00 0.00 99 1015.9
20260507075716 52 180 0.0 0.0 0.00 0.00 0.00 99 1015.9
20260507075135 52 23 0.0 0.0 0.00 0.00 0.00 99 1016.2
20260507074541 52 0 0.0 0.0 0.00 0.00 0.00 99 1015.9
20260507073952 52 315 0.0 0.0 0.00 0.00 0.00 99 1015.9
20260507073328 52 0 0.0 0.0 0.00 0.00 0.00 99 1015.9
20260507072748 52 270 0.0 0.0 0.00 0.00 0.00 99 1015.9
20260507072116 52 23 2.0 2.0 0.00 0.00 0.00 99 1015.9
20260507071537 52 203 0.0 0.0 0.00 0.00 0.00 99 1015.5
20260507070310 52 293 0.0 0.0 0.00 0.00 0.00 99 1015.9
20260507065753 53 270 0.0 0.0 0.00 0.00 0.00 99 1015.9
20260507064514 53 180 0.0 0.0 0.00 0.00 0.00 99 1015.9
20260507063913 53 203 0.0 0.0 0.00 0.00 0.00 99 1015.9
20260507063347 53 203 0.0 0.0 0.00 0.00 0.00 99 1015.9
20260507062716 53 203 0.0 0.0 0.00 0.00 0.00 99 1015.9
20260507062130 53 180 0.0 0.0 0.00 0.00 0.00 99 1015.9
20260507061517 53 0 2.0 2.0 0.00 0.00 0.00 99 1016.2
20260507060928 53 23 0.0 0.0 0.00 0.00 0.00 99 1016.2
20260507060317 53 45 0.0 0.0 0.00 0.00 0.00 99 1016.2
20260507055734 53 338 0.0 2.0 0.00 0.00 0.00 99 1016.2
20260507055110 53 338 0.0 0.0 0.00 0.00 0.00 99 1015.9
20260507053926 53 0 3.0 3.0 0.00 0.00 0.00 99 1016.2
20260507052712 54 23 0.0 0.0 0.00 0.00 0.00 99 1016.2
20260507052147 54 23 2.0 2.0 0.00 0.00 0.00 99 1016.2
20260507051524 54 0 0.0 1.0 0.00 0.00 0.00 99 1016.2
20260507050911 54 293 0.0 2.0 0.00 0.00 0.00 99 1016.2
20260507050342 54 293 0.0 0.0 0.00 0.00 0.00 99 1016.2
20260507045750 54 23 0.0 0.0 0.00 0.00 0.00 99 1016.2
20260507045142 54 315 0.0 0.0 0.00 0.00 0.00 99 1016.2
20260507044539 54 293 0.0 0.0 0.00 0.00 0.00 99 1016.2
20260507043954 54 23 0.0 0.0 0.00 0.00 0.00 99 1016.2
20260507041541 54 270 0.0 0.0 0.00 0.00 0.00 99 1016.2
20260507040932 54 270 0.0 0.0 0.00 0.00 0.00 99 1016.2
20260507040332 54 0 0.0 0.0 0.00 0.00 0.00 99 1015.9
20260507035713 55 45 0.0 0.0 0.00 0.00 0.70 99 1016.2
20260507035145 54 270 0.0 0.0 0.00 0.00 0.70 99 1016.2
20260507034518 55 225 0.0 0.0 0.00 0.00 0.70 99 1015.9
20260507033911 54 225 0.0 0.0 0.00 0.00 0.70 99 1015.9
20260507033343 54 225 0.0 0.0 0.00 0.00 0.70 99 1015.9
20260507032121 54 270 0.0 0.0 0.00 0.00 0.70 99 1015.5
20260507030950 55 203 0.0 0.0 0.00 0.00 0.70 99 1015.5
20260507030351 55 248 0.0 0.0 0.00 0.00 0.70 99 1015.9
20260507025726 55 248 0.0 0.0 0.00 0.00 0.70 99 1015.9
20260507024540 55 0 0.0 0.0 0.00 0.00 0.70 99 1016.2
20260507023911 55 45 0.0 0.0 0.00 0.00 0.70 99 1016.2
20260507023354 55 23 2.0 2.0 0.00 0.00 0.70 99 1016.2
20260507022710 55 158 0.0 1.0 0.00 0.00 0.70 99 1015.5
20260507022117 55 338 0.0 0.0 0.00 0.00 0.70 99 1016.2
20260507021541 55 225 0.0 2.0 0.00 0.00 0.70 99 1015.9
20260507020939 55 225 0.0 1.0 0.00 0.00 0.69 99 1016.9
20260507020318 55 338 0.0 3.0 0.00 0.00 0.69 99 1017.2
20260507015728 55 68 2.0 2.0 0.00 0.00 0.69 99 1016.9
20260507015145 55 180 0.0 0.0 0.00 0.00 0.69 99 1015.5
20260507014513 55 180 0.0 1.0 0.00 0.00 0.69 99 1015.9
20260507013930 55 248 0.0 0.0 0.00 0.00 0.69 99 1016.2